DateTimeUTC,F1_A11,F1_S11,BsB_S11,BsG_S11,BsR_S11,BbsB_S11,BbsG_S11,BbsR_S11,BaB_A11,BaG_A11,BaR_A11,Tu_S11,T_S11,Uu_S11,U_S11,P_S11,T1_A11
2021-09-17T03:00:00Z,00000200,21000000,,,,,,,0000.25,-000.00,0000.38,17.8,25.2,,00.0,0658.7,31.0
2021-09-17T03:01:00Z,00000200,21000000,,,,,,,-000.08,-000.21,-000.56,17.9,25.2,,00.0,0658.7,31.0
2021-09-17T03:02:00Z,00000200,21000000,,,,,,,0000.21,0000.40,0000.42,17.9,25.3,,00.0,0658.7,31.0
2021-09-17T03:03:00Z,00000200,61000000,,,,,,,0000.13,-000.18,-000.01,17.9,25.3,,00.0,0658.7,31.0
2021-09-17T03:04:00Z,00000200,41000000,0000.22,0000.12,0000.25,-000.19,0000.10,0000.04,-000.14,-000.10,-000.29,18.2,25.1,,00.0,0659.6,31.0
2021-09-17T03:05:00Z,00000200,01000000,0000.09,-000.15,0000.01,-000.28,0000.17,-000.03,-000.21,-000.03,-000.01,18.1,25.1,,00.0,0659.7,31.0
2021-09-17T03:06:00Z,00000200,01000000,-000.06,0000.09,0000.09,-000.09,0000.06,-000.19,0000.12,0000.10,-000.28,18.0,25.0,,00.0,0659.7,31.0
2021-09-17T03:07:00Z,00000200,01000000,0000.32,0000.17,0000.05,0000.42,0000.10,-000.09,-000.18,-000.39,0000.31,17.9,24.9,,00.0,0659.7,31.0
2021-09-17T03:08:00Z,00000200,01000000,-000.50,0000.27,0000.05,-000.02,0000.50,-000.04,-000.44,-000.31,-000.50,17.9,24.9,,00.0,0659.7,30.9
2021-09-17T03:09:00Z,00000200,01000000,0000.59,0000.55,0000.08,-000.60,0000.06,-000.03,0000.28,0000.09,-000.12,17.8,24.8,,00.0,0659.7,30.9
2021-09-17T03:10:00Z,00000200,01000000,0000.96,0000.34,0000.13,0000.40,0000.40,-000.05,-000.46,-000.25,0000.35,17.8,24.8,,00.0,0659.7,30.9
2021-09-17T03:11:00Z,00000200,01000000,0000.23,0000.37,0000.50,-000.25,0000.39,0000.04,-000.10,-000.08,-000.44,17.8,24.8,,00.0,0659.7,30.9
2021-09-17T03:12:00Z,00000200,01000000,0000.63,0001.04,0000.36,0000.59,0000.08,0000.30,-000.86,-000.57,-000.43,17.9,24.8,,00.0,0659.7,31.0
2021-09-17T03:13:00Z,00000200,01000000,0001.32,0000.40,0000.39,0000.13,0000.12,0000.11,-000.41,-000.36,-000.21,18.0,24.9,,00.0,0659.8,31.0
2021-09-17T03:14:00Z,00000200,01000000,0000.29,0000.21,0000.16,-000.13,0000.08,-000.42,0000.43,0000.44,0000.19,18.1,24.9,,00.0,0659.7,31.0
2021-09-17T03:15:00Z,00000200,01000000,0000.86,0000.22,-000.21,-000.02,0000.11,0000.02,0000.56,0000.46,0000.59,18.2,24.9,,00.0,0659.7,31.0
2021-09-17T03:16:00Z,00000200,01000000,0000.05,0000.01,-000.21,0000.30,0000.17,-000.17,0000.52,0000.46,0000.59,18.2,25.0,,00.0,0659.7,31.0
2021-09-17T03:17:00Z,00000200,01000000,0000.28,0000.08,0000.22,0000.07,0000.35,0000.01,0000.65,0000.35,-000.02,18.3,25.0,,00.0,0659.8,31.0
2021-09-17T03:18:00Z,00000200,01000000,-000.20,0000.22,0000.27,-000.08,0000.22,0000.19,0000.18,0000.24,0000.13,18.4,25.0,,00.0,0659.8,31.0
2021-09-17T03:19:00Z,00000200,01000000,-000.81,-000.23,0000.06,0000.21,0000.24,0000.07,-000.13,-000.19,0000.07,18.4,25.1,,00.0,0659.8,31.0
2021-09-17T03:20:00Z,00000200,01000000,0000.69,-000.02,0000.06,0000.12,-000.04,-000.03,0000.07,0000.21,0000.01,18.4,25.1,,00.0,0659.8,31.0
2021-09-17T03:21:00Z,00000200,01000000,-000.15,-000.08,0000.16,0000.02,0000.16,-000.04,-000.64,-000.81,-000.56,18.3,25.0,,00.0,0659.8,31.0
2021-09-17T03:22:00Z,00000200,01000000,0000.09,-000.42,-000.05,0000.60,0000.13,-000.10,0000.22,0000.03,0000.05,18.2,25.0,,00.0,0659.7,31.0
2021-09-17T03:23:00Z,00000200,01000000,-000.07,0000.01,-000.06,-000.08,0000.44,-000.33,0000.15,0000.65,0000.39,18.1,24.9,,00.0,0659.7,31.0
2021-09-17T03:24:00Z,00000200,01000000,-000.38,-000.11,0000.03,0000.49,0000.08,0000.06,0001.10,0000.45,0000.59,18.0,24.9,,00.0,0659.7,31.0
2021-09-17T03:25:00Z,00000200,01000000,0000.35,0000.44,-000.01,-000.85,0000.31,-000.07,0000.17,0000.39,0000.01,18.0,24.9,,00.0,0659.7,31.0
2021-09-17T03:26:00Z,00000200,01000000,-000.53,0000.10,-000.28,-000.07,0000.11,-000.04,-000.76,-000.29,-000.23,18.1,24.9,,00.0,0659.7,31.0
2021-09-17T03:27:00Z,00000200,01000000,0000.74,0000.13,0000.29,0000.46,0000.14,-000.17,-000.32,-000.54,-000.28,18.2,24.9,,00.0,0659.7,31.0
2021-09-17T03:28:00Z,00000200,01000000,0000.80,-000.11,0000.06,0000.07,0000.25,-000.27,-000.39,-000.32,-000.49,18.2,25.0,,00.0,0659.7,31.0
2021-09-17T03:29:00Z,00000200,01000000,-000.12,0000.25,-000.03,-000.03,0000.26,0000.33,-000.34,-000.03,-000.17,18.3,25.0,,00.0,0659.7,31.0
2021-09-17T03:30:00Z,00000200,01000000,0000.41,0000.13,-000.22,-000.15,0000.26,-000.08,-000.11,-000.39,0000.07,18.3,25.0,,00.0,0659.7,31.1
2021-09-17T03:31:00Z,00000200,01000000,-000.01,0000.40,0000.30,0000.58,0000.08,0000.18,-000.14,-000.07,-000.02,18.4,25.1,,00.0,0659.8,31.0
2021-09-17T03:32:00Z,00000200,01000000,0000.38,0000.12,0000.02,0000.16,0000.37,-000.08,0000.06,0000.08,0000.39,18.5,25.1,,00.0,0659.8,31.1
2021-09-17T03:33:00Z,00000200,01000000,-000.09,-000.00,0000.09,-000.45,0000.10,0000.06,-000.02,-000.30,-000.39,18.5,25.1,,00.0,0659.7,31.1
2021-09-17T03:34:00Z,00000200,01000000,0000.58,-000.05,-000.05,0000.05,0000.14,-000.35,0000.38,0000.42,0000.21,18.6,25.2,,00.0,0659.8,31.0
2021-09-17T03:35:00Z,00000200,01000000,0000.81,0000.39,0000.08,0000.32,-000.09,-000.05,0000.12,0000.38,0000.19,18.5,25.2,,00.0,0659.8,31.0
2021-09-17T03:36:00Z,00000200,01000000,0000.05,-000.19,-000.05,0000.08,-000.22,-000.25,0000.16,0000.21,0000.37,18.4,25.1,,00.0,0659.7,31.0
2021-09-17T03:37:00Z,00000200,01000000,0000.38,0000.10,-000.30,-000.51,-000.15,-000.26,0000.65,0000.65,0000.12,18.3,25.1,,00.0,0659.7,31.0
2021-09-17T03:38:00Z,00000200,01000000,0000.18,-000.25,0000.14,0000.20,-000.24,0000.13,0000.47,0000.19,0000.27,18.2,25.0,,00.0,0659.7,31.0
2021-09-17T03:39:00Z,00000200,01000000,0000.04,-000.38,0000.39,-000.26,0000.53,-000.05,0000.41,0000.07,-000.08,18.2,25.0,,00.0,0659.7,31.0
2021-09-17T03:40:00Z,00000200,01000000,-000.23,0000.45,-000.12,0000.33,0000.21,-000.04,-000.00,0000.80,0000.47,18.2,25.0,,00.0,0659.7,31.0
2021-09-17T03:41:00Z,00000200,01000000,0000.20,0000.01,-000.14,-000.01,0000.11,-000.30,0000.46,-000.24,0000.26,18.2,25.0,,00.0,0659.7,31.0
2021-09-17T03:42:00Z,00000200,01000000,-000.23,-000.23,-000.06,-000.02,0000.40,-000.08,0000.43,0000.40,0000.14,18.3,25.0,,00.0,0659.7,31.0
2021-09-17T03:43:00Z,00000200,01000000,-000.41,-000.13,0000.32,0000.36,0000.28,0000.00,0000.17,0000.32,0000.27,18.4,25.0,,00.0,0659.6,31.0
2021-09-17T03:44:00Z,00000200,01000000,-000.15,0000.08,0000.09,-000.55,0000.17,0000.10,-000.28,-000.10,-000.08,18.5,25.1,,00.0,0659.7,31.0
2021-09-17T03:45:00Z,00000200,01000000,0000.08,0000.10,-000.40,-000.04,0000.33,-000.31,0000.09,0000.05,-000.28,18.5,25.1,,00.0,0659.7,31.0
2021-09-17T03:46:00Z,00000200,01000000,0000.15,0000.01,0000.13,0000.20,0000.39,-000.38,-000.29,-000.16,0000.03,18.6,25.1,,00.0,0659.7,31.0
2021-09-17T03:47:00Z,00000200,01000000,-000.06,0000.22,0000.09,0000.24,0000.32,0000.19,-000.66,-000.92,-000.68,18.5,25.2,,00.0,0659.7,31.0
2021-09-17T03:48:00Z,00000200,01000000,0000.62,-000.10,0000.00,-000.58,-000.04,-000.17,-000.64,-001.06,-000.60,18.5,25.1,,00.0,0659.7,31.0
2021-09-17T03:49:00Z,00000200,01000000,0000.35,0000.45,0000.12,0000.17,0000.19,0000.00,-000.95,-000.45,-000.48,18.3,25.1,,00.0,0659.7,31.0
2021-09-17T03:50:00Z,00000200,01000000,0000.95,-000.01,0000.34,0000.04,-000.13,-000.05,0000.21,0000.13,0000.19,18.2,25.0,,00.0,0659.7,31.0
2021-09-17T03:51:00Z,00000200,01000000,-000.02,0000.06,0000.08,0000.23,0000.43,0000.02,-000.58,-000.02,-000.59,18.1,25.0,,00.0,0659.7,31.0
2021-09-17T03:52:00Z,00000200,01000000,0000.14,0000.27,0000.44,0000.08,0000.17,-000.05,-000.04,-000.72,0000.09,18.0,24.9,,00.0,0659.7,30.9
2021-09-17T03:53:00Z,00000200,01000000,0000.12,-000.11,0000.42,0000.13,0000.13,-000.21,-000.62,-000.25,-000.57,17.9,24.9,,00.0,0659.6,30.9
2021-09-17T03:54:00Z,00000200,01000000,-000.19,-000.09,0000.03,-000.48,0000.17,-000.14,0000.19,0000.22,-000.13,17.9,24.8,,00.0,0659.6,30.9
2021-09-17T03:55:00Z,00000200,01000000,0000.30,0000.23,0000.14,-000.12,-000.17,0000.03,-000.07,-000.11,0000.28,17.9,24.8,,00.0,0659.6,30.9
2021-09-17T03:56:00Z,00000200,01000000,0000.15,-000.15,-000.09,-000.62,0000.27,-000.37,0000.52,0000.28,0000.25,17.9,24.8,,00.0,0659.6,30.9
2021-09-17T03:57:00Z,00000200,41000000,,,,,,,0000.80,0000.98,0000.64,18.0,24.9,,00.0,0659.7,31.0
2021-09-17T03:58:00Z,00000200,61000000,,,,,,,-000.36,-000.05,-000.16,17.7,25.0,,00.0,0658.6,31.0
2021-09-17T03:59:00Z,00000200,21000000,,,,,,,0000.13,-000.03,0000.10,17.7,25.1,,00.0,0658.6,31.0
